www.pogodaiklimat.ru
ПОГОДА в Торрансе
Время
и дата
16:47 13.07
17:47 13.07
18:47 13.07
05:58 14.07
06:50 14.07
07:47 14.07
08:10 14.07
08:52 14.07
09:47 14.07
10:47 14.07
11:47 14.07
12:48 14.07
13:50 14.07
14:47 14.07
15:20 14.07
15:47 14.07
16:49 14.07
17:47 14.07
18:47 14.07
05:53 15.07
06:48 15.07
07:49 15.07
08:15 15.07
08:49 15.07
09:47 15.07
10:50 15.07
11:47 15.07
12:47 15.07
13:47 15.07
14:47 15.07
15:47 15.07
16:47 15.07
17:55 15.07
18:50 15.07
05:51 16.07
06:47 16.07
07:51 16.07
08:47 16.07
09:47 16.07
10:47 16.07
11:48 16.07
12:48 16.07
13:48 16.07
14:48 16.07
15:53 16.07
16:49 16.07
17:55 16.07
18:47 16.07
Ветер
(напр.,м/с)
Видим. Явления Облачность Т
(С)
Тd
(С)
f
(%)
Тe
(С)
Тes
(С)
Комфортность P
(гПа)
Po
(гПа)
Тmin
(С)
Tmax
(С)
R
(мм)
R24
(мм)
S
(см)
З 7 16 км 5/2 300 m
[Ac]
+22.0 +17.0 73 +26 +27 душно 1009.7
З 6 16 км 2/2 240 m
[Ac]
+20.0 +16.0 78 +22 +23 комфорт 1010.4
З 6 16 км 2/2 450 m
[Ac]
+18.0 +16.0 88 +17 +18 1010.7
З 2 5 км дымка 10/10 270 м +18.0 +17.0 94 +19 +19 1013.8
ЮВ 2 6 км дымка 10/10 270 м +19.0 +17.0 88 +21 +21 комфорт 1014.8
штиль 0 6 км дымка 10/10 270 м +21.0 +17.0 78 +25 +25 комфорт 1014.8
штиль 0 6 км дымка 10/10 330 м +21.0 +17.0 78 +25 +25 комфорт 1014.8
З 3 10 км дымка 8/8 330 м +22.0 +17.0 73 +26 +28 душно 1014.4
СЗ 3 10 км дымка 5/5 450 м +24.0 +17.0 65 +28 +33 душно 1014.4
З 6 11 км мгла 8/8 450 м +24.0 +18.0 69 +28 +30 душно 1014.1
З 5 16 км 5/2 360 m
[Ac]
+24.0 +17.0 65 +28 +34 душно 1013.4
З 6 16 км 5/5 540 м +24.0 +17.0 65 +28 +32 душно 1012.7
З 7 16 км 5/5 450 м +25.0 +18.0 65 +29 +32 душно 1012.4
З 8 16 км 2/2 300 m
[Ac]
+24.0 +17.0 65 +28 +30 душно 1012.1
штиль 0 16 км 2/2 300 m
[Ac]
+23.0 +17.0 69 +28 +41 душно 1012.1
З 9 16 км 2/2 300 m
[Ac]
+23.0 +17.0 69 +28 +29 душно 1012.1
З 7 16 км 2/2 300 m
[Ac]
+22.0 +17.0 73 +26 +28 душно 1012.1
З 7 16 км 2/2 300 m
[Ac]
+21.0 +16.0 73 +24 +25 комфорт 1012.1
З 7 16 км 2/2 300 m
[Ac]
+19.0 +16.0 83 +20 +20 1012.1
З 4 11 км 10/10 360 м +18.0 +16.0 88 +18 +18 1013.8
З 2 11 км 10/10 300 м +19.0 +16.0 83 +21 +21 комфорт 1014.4
штиль 0 11 км 8/8 390 м +21.0 +16.0 73 +24 +25 комфорт 1014.4
штиль 0 10 км мгла 5/5 360 м +21.0 +16.0 73 +24 +30 комфорт 1014.1
СЗ 2 10 км мгла 2/2 360 м +23.0 +17.0 69 +28 +35 душно 1014.1
З 4 11 км 5/2 330 m
[Ac]
+24.0 +17.0 65 +28 +33 душно 1013.8
З 6 14 км 5/0 4200 m
[Ac]
+24.0 +17.0 65 +28 +32 душно 1013.1
З 6 16 км 5/2 420 m
[Ac]
+24.0 +17.0 65 +28 +32 душно 1012.4
З 8 16 км 5/2 480 m
[Ac]
+24.0 +17.0 65 +28 +30 душно 1011.4
З 8 16 км 2/2 300 m
[Ac]
+24.0 +17.0 65 +28 +31 душно 1010.7
З 10 16 км 5/5 150 м +23.0 +17.0 69 +28 +28 душно 1010.4
З 8 16 км 2/0 2100 m
[Ac]
+23.0 +17.0 69 +28 +30 душно 1009.7
З 7
{10}
16 км 2/2 300 m
[Ac]
+22.0 +16.0 69 +26 +28 душно 1009.7
З 7 16 км ясно +21.0 +16.0 73 +24 +25 комфорт 1009.7
З 4 16 км 2/0 2100 m
[Ac]
+19.0 +16.0 83 +20 +21 1009.7
штиль 0 16 км 2/2 360 м +19.0 +16.0 83 +20 +20 1011.7
штиль 0 16 км 2/2 360 м +20.0 +16.0 78 +22 +24 комфорт 1012.4
нст 3 16 км 2/2 450 м +22.0 +16.0 69 +26 +29 душно 1012.7
штиль 0 16 км 5/5 1950 м +22.0 +16.0 69 +26 +32 душно 1012.4
нст 2 16 км ясно +24.0 +16.0 61 +27 +40 жарко 1012.4
нст 2 16 км ясно +25.0 +17.0 61 +29 +46 душно 1012.1
нст 2 16 км ясно +26.0 +17.0 58 +30 +50 душно 1011.7
З 3 16 км ясно +27.0 +18.0 58 +32 +49 очень
душно
1011.1
З 8 16 км ясно +26.0 +18.0 61 +30 +34 душно 1010.7
З 7
{11}
16 км 2/2 300 m
[Ac]
+25.0 +17.0 61 +29 +32 душно 1010.4
З 8
{10}
16 км 2/2 300 м +23.0 +17.0 69 +28 +30 душно 1010.0
З 7 16 км 2/2 300 м +22.0 +17.0 73 +26 +28 душно 1009.7
З 8 16 км 2/2 300 м +21.0 +16.0 73 +24 +25 комфорт 1009.4
З 5 16 км ясно +19.0 +16.0 83 +20 +20 1009.7
Местоположение метеостанции Zamperini Field Airport: широта 33.8000 долгота -118.3300 высота над уровнем моря 31 м.
В архиве по умолчанию представлена погода в Торрансе за последние 1-2 суток. Обновление информации о фактической погоде в базе происходит ежечасно! Архивные данные за месяц целиком и за предыдущие месяцы Вы можете получить, выбрав интересующий диапазон дат из раскрывающегося списка и нажав кнопку "Ввод!".
Внимание! Архив погоды МЕТАР в базе сайта по станциям, не включенным в климатический монитор, хранится не более 60 дней. Нет смысла пытаться выбрать более раннюю дату.
*Определитесь, кто Вы:
Внимание! Время в таблицах - местное (без учета летнего времени). Для получения всемирного времени необходимо вычесть поправку, которая равна -8 ч.
Смотрите также архив погоды в соседних городах и на ближайших метеорологических станциях:
Партнеры нашего сайта:      
Пояснения к столбцам:
  • Ветер - указаны скорость ветра в м/с - средняя за 10 мин, порывы в срок и между сроками (в фигурных скобках) и направление, откуда дует ветер: С - северный,
  • СВ - северо-восточный, В - восточный, ЮВ - юго-восточный, Ю - южный, ЮЗ - юго-западный, З - западный, СЗ - северо-западный.
  • Видимость - горизонтальная дальность видимости в метрах или километрах. При видимости от 1 до 10 км при отсутствии осадков обычно наблюдается дымка, при ухудшении видимости до 1 км и менее - туман. В сухую погоду видимость может ухудшаться дымом, пылью или мглою.
  • Явления - указаны атмосферные явления, наблюдавшиеся в срок или в последний час перед сроком; фигурными скобками обозначены явления, наблюдавшиеся между сроками (за 1-3 часа до срока); квадратными скобками обозначены град или гололедные отложения с указанием их диаметра в мм.
  • Облачность - указаны через наклонную черту общая и нижняя облачность в баллах и высота нижней границы облаков в метрах; квадратными скобками обозначены формы облаков: Ci - перистые, Cs - перисто-слоистые, Cc - перисто-кучевые, Ac - высококучевые, As - высокослоистые, Sc - слоисто-кучевые, Ns - слоисто-дождевые, Cu - кучевые, Cb - кучево-дождевые. Подробнее классификацию облаков см. в Атласе облаков (PDF).
  • T - Температура воздуха - температура, измеренная на высоте 2 м над землей.
  • Td - Температура точки росы - температура, при понижении до которой содержащийся в воздухе водяной пар достигнет насыщения.
  • f - Относительная влажность воздуха - влажноcть воздуха, измеренная на высоте 2 м над землей.
  • Te - Эффективная температура - температура, которую ощущает одетый по сезону человек в тени. Характеристика душности погоды. При расчете учитывается влияние влажности воздуха и скорости ветра на теплоощущения человека.
  • Tes - Эффективная температура на солнце - температура, которую ощущает человек, с поправкой на солнечный нагрев. Характеристика знойности погоды. Зависит от высоты солнца над горизонтом, облачности и скорости ветра. Ночью, в пасмурную погоду, а также при ветре 12 м/с и более поправка равна нулю.
  • P - Атмосферное давление - приведенное к уровню моря атмосферное давление.
  • Po - Атмосферное давление - измеренное на уровне метеостанции атмосферное давление.
  • Tmin - Минимальная температура - минимум температуры воздуха на высоте 2 м над землей.
  • Tmax - Максимальная температура - максимум температуры воздуха на высоте 2 м над землей.
  • R - Количество осадков - Количество выпавших осадков за период времени, мм. При наведении курсора мыши на число - период времени, за который выпало указанное количество осадков.
  • R24 - Количество осадков - Количество выпавших осадков за 24 часа, мм.
  • S - Снежный покров - Высота снежного покрова, см. При наведении курсора мыши на число - состояние снежного покрова и степень покрытия местности в баллах.